Résultats sport de masse course à pied

Résultats : Marathon de la Pointe de Barfleur - Marathon de Barfleur

Classement général Classement Catégorie Nom, prénom Catégorie Sexe Club Temps global
181 46 GUESLOT Franck V2 M 04:26:36
182 47 DECONIHOUT Thierry V2 M 04:27:07
191 48 OLIVIER Jean-claude V2 M 04:29:40
199 49 BARBEDETTE Jean V2 M 04:32:58
200 6 PERRIER Corinne V2 F 04:33:38
204 50 LEVILLAIN Alain V2 M 04:34:50
205 51 GUILLOT PATRICE V2 M ATHLE DU PAYS DE REDON 04:36:10
209 52 MARLIER JEAN LOUP V2 M 04:37:28
212 53 LAINE Patrice V2 M STADE ATHLETIQUE BAYEUSAIN 04:38:11
213 54 GABORIAU Fabrice V2 M 04:39:16
219 7 DONATI Véronique V2 F 04:43:53
230 55 BOUTEILLER JACKY V2 M SPORT LOISIRS ALIERMONTAIS 04:49:49
241 56 ROTROU ERIC V2 M 04:59:01
246 57 DUBOIS Daniel V2 M 04:59:53
247 58 BARON Jacques V2 M 05:00:49
250 59 VALOGNES Pascal V2 M 05:03:05
251 8 MARQUET Christine V2 F S/L MONTATAIRE AC 05:06:06
259 60 DAVID PHILIPPE V2 M LES KEKES DU BOCAGE 05:07:40
263 61 BARBOTEAU Laurent V2 M 05:13:24
264 62 LAURENT Dominique V2 M 05:14:46
265 9 ECK Monique V2 F 05:14:51
267 63 FRIBOULET Pascal V2 M 05:16:03
268 64 SEVESTRE Jean-michel V2 M 05:16:34
269 65 LE BRAS Augustin V2 M 05:19:10
271 66 GRANDVALET LOIC V2 M 05:19:32
274 67 GENOU Olivier V2 M COUREURS DE FOND DéOLOIS 05:24:01
275 68 LEVIAUTRE Hugues V2 M 05:26:56
276 69 PIGNOT Philippe V2 M 05:27:25
280 10 RIO Claudine V2 F STADE VERNEUIL SUR AVRE 05:34:16
281 70 HERVE Vincent V2 M 05:35:23
288 71 FROMENT Philippe V2 M 06:00:22
DNF 0 DOUBLET Jean-marc V2 M 00:00:00
DNF 0 HUMEZ Serge V2 M 00:00:00
DNF 0 MADELAINE - NICOT Denis V2 M 00:00:00
1 2 Page suivante Dernière page